sat.trackr.live / text

‹ back to catalog

IRIDE-MS1-EAGLET 2-7

NORAD 66701 · 2025-276AM

PAYLOAD ACTIVE UNKNOWN

§ Identity

Operator
Country
IT
Launch date
2025-11-28
Launch site
AFWTR
Launch vehicle
Mass (kg)
RCS (m²)

External: N2YO · Heavens-Above · Gunter

§ Orbital elements

Epoch: 2026-09-20T08:02:30.541344Z

Period
94.67 min
Inclination
97.4138°
Eccentricity
0.0005463
Mean motion
15.21106877 rev/d
Perigee alt
498.7 km
Apogee alt
506.3 km
Semi-major
6,880.6 km
B*
2.3114e-4
RAAN
335.4778°
Arg perigee
46.0547°
Mean anomaly
314.1138°
Rev number
4,488

§ Raw data

IRIDE-MS1-EAGLET 2-71 66701U 25276AM  26263.33507571  .00005074  00000+0  23114-3 0  99912 66701  97.4138 335.4778 0005463  46.0547 314.1138 15.21106877 44888

JSON: /api/v1/satellites/66701 · /tle

For live sub-satellite position, see the globe view (requires WebGL).

§ Visibility from observer

Set your observer location to see the next 7 days of passes ≥ 10°. The values pass through the URL so the page stays shareable.

No JS? Fill the form by hand. The geolocation button needs JavaScript.